Content
SEND FEEDBACK

Daily
Averages
Monthly
Summary
Spain

MÁLAGA, SPAIN


Home > Europe > Spain
Elevation: 23 feet     Latitude: 36 40N     Longitude: 004 29W

WEATHER
 
SELECT A DAY
Number of Records: 318,490;   Date Range: 7/1/96 - 8/12/14
 
SHARE

PRINT THIS DATA

[ ← Previous Day ]
WEATHER ALMANAC - JANUARY 31, 2013
[ Next Day → ]
[ °C ]   °F
Weather ElementAverageHighLow
Temperature54.7 °F66.2 °F (12:30 pm)44.6 °F (11:30 pm)
Dewpoint44.6 °F53.6 °F (2:30 pm)39.2 °F (9:00 am)
Humidity69.3 %87 % (11:30 pm)38 % (1:00 pm)
Barometer30.41 in30.48 in (12:00 pm)30.39 in (3:30 am)
Wind Speed5.4 mph11.5 mph (2:00 am)
Weather ElementAverage
Visibility20.5 mi
Wind DirectionSSW (188.4 °)

Weather ElementTotal
Precipitation---
Heating Degree Days9.6 (Base 65)
Growing Degree Days5.4 (Base 50)
Averaged from 50 records on January 31, 2013
WEATHER CONDITIONS BREAKOUT
WIND DIRECTION BREAKOUT
WEATHER BY HOUR - JANUARY 31, 2013
[ °C ]   °F
Local TimeTemperatureDewpointHumidityBarometerVisibilityWind DirectionWind SpeedGust SpeedPrecipitationEventsConditions
12:30 AM53.6 °F44.6 °F72 %30.42 inNW (310°)10.4 mphClear
1:00 AM57.0 °F44.0 °F52 %30.43 in16.0 miNW (310°)9.2 mph
1:00 AM53.6 °F44.6 °F72 %30.42 inNW (310°)9.2 mphClear
1:30 AM53.6 °F44.6 °F72 %30.42 inWNW (300°)9.2 mphClear
2:00 AM51.8 °F44.6 °F76 %30.42 inWNW (300°)11.5 mphClear
2:30 AM50.0 °F44.6 °F82 %30.42 inWNW (300°)8.1 mphClear
3:00 AM50.0 °F42.8 °F76 %30.42 inWNW (300°)10.4 mphClear
3:30 AM48.2 °F42.8 °F82 %30.39 inNW (310°)9.2 mphClear
4:00 AM48.2 °F42.8 °F82 %30.39 inNW (310°)6.9 mphClear
4:30 AM48.2 °F42.8 °F82 %30.39 inNW (310°)9.2 mphClear
5:00 AM48.2 °F42.8 °F82 %30.39 inNW (310°)9.2 mphClear
5:30 AM48.2 °F42.8 °F82 %30.39 inNW (310°)10.4 mphClear
6:00 AM46.4 °F41.0 °F81 %30.39 inNW (310°)9.2 mphClear
6:30 AM46.4 °F41.0 °F81 %30.39 inNW (310°)10.4 mphClear
7:00 AM53.0 °F40.0 °F51 %30.40 in16.0 miNW (310°)10.4 mph
7:00 AM46.4 °F41.0 °F81 %30.39 inNW (310°)10.4 mphClear
7:30 AM48.2 °F41.0 °F76 %30.39 inNW (310°)10.4 mphClear
8:00 AM46.4 °F41.0 °F81 %30.39 inNW (310°)10.4 mphClear
8:30 AM46.4 °F41.0 °F81 %30.42 inNW (310°)9.2 mphClear
9:00 AM46.4 °F39.2 °F76 %30.42 inNW (310°)8.1 mphClear
9:30 AM50.0 °F41.0 °F71 %30.42 inNW (310°)8.1 mphClear
10:00 AM51.8 °F42.8 °F71 %30.45 inWNW (300°)9.2 mphClear
10:30 AM55.4 °F42.8 °F63 %30.45 inWNW (300°)6.9 mphClear
11:00 AM59.0 °F41.0 °F51 %30.45 inNW (320°)6.9 mphClear
11:30 AM62.6 °F39.2 °F42 %30.45 inVariable2.3 mphClear
12:00 PM64.4 °F41.0 °F42 %30.48 inCalmClear
12:30 PM66.2 °F41.0 °F40 %30.48 inESE (110°)4.6 mphClear
1:00 PM65.0 °F45.0 °F38 %30.48 in25.0 miSE (130°)4.6 mph
1:30 PM64.4 °F46.4 °F52 %30.45 inSE (130°)4.6 mphClear
2:00 PM62.6 °F51.8 °F68 %30.45 inESE (120°)3.5 mphClear
2:30 PM62.6 °F53.6 °F72 %30.42 inSE (130°)3.5 mphClear
3:00 PM62.6 °F50.0 °F63 %30.42 inVariable2.3 mphClear
3:30 PM62.6 °F50.0 °F63 %30.39 inVariable2.3 mphClear
4:00 PM64.4 °F50.0 °F59 %30.39 inVariable1.2 mphClear
4:30 PM64.4 °F51.8 °F64 %30.39 inVariable2.3 mphClear
5:00 PM64.4 °F48.2 °F56 %30.39 inCalmClear
5:30 PM64.4 °F46.4 °F52 %30.39 inCalmClear
6:00 PM60.8 °F51.8 °F72 %30.39 inVariable2.3 mphClear
6:30 PM59.0 °F51.8 °F77 %30.39 inCalmClear
7:00 PM57.0 °F49.0 °F68 %30.40 in25.0 miCalm
7:00 PM55.4 °F50.0 °F82 %30.39 inCalmClear
7:30 PM57.2 °F44.6 °F63 %30.39 inCalmClear
8:00 PM53.6 °F44.6 °F72 %30.39 inVariable2.3 mphClear
8:30 PM51.8 °F44.6 °F76 %30.39 inWNW (290°)3.5 mphClear
9:00 PM51.8 °F42.8 °F71 %30.39 inNW (320°)1.2 mphClear
9:30 PM51.8 °F44.6 °F76 %30.39 inVariable1.2 mphClear
10:00 PM53.6 °F48.2 °F82 %30.42 inCalmClear
10:30 PM51.8 °F44.6 °F76 %30.42 inCalmClear
11:00 PM50.0 °F42.8 °F76 %30.42 inNW (310°)1.2 mphClear
11:30 PM44.6 °F41.0 °F87 %30.39 inWNW (300°)4.6 mphClear
Hourly data recorded from LEMG, located miles away from Málaga, Spain







STORIES FROM OUR PARTNERS